Location: Bauen
(46.9356°N, 8.5784°E)
Time: 18:44:38
(UTC+00:00)

FENGYUN 3A - Pass Details

Date: 18 February 2020
Orbit: 824 x 836 km, 98.4° (Epoch: 28 March)

Event Time Altitude Azimuth Distance (km) Brightness Sun altitude
Rises 04:31:19 0° 16° (NNE) 3,396 7.1 -20.3°
Reaches altitude 10° 04:33:43 10° 19° (NNE) 2,458 6.4 -19.8°
Maximum altitude 04:39:09 67° 102° (ESE) 909 4.0 -18.9°
Drops below altitude 10° 04:44:32 10° 185° (S) 2,441 6.0 -18.0°
Sets 04:46:54 0° 188° (S) 3,370 6.7 -17.6°
